EXPRESS AMU-3

Last updated on Sun Oct 19 2025 00:02:51 GMT+0000 (Coordinated Universal Time)

1 50002U 21123B 25291.63782451 -.00000327 00000+0 00000+0 0 9992 2 50002 0.0204 252.9459 0000392 242.7804 224.2981 1.00271943 4607
UTC large
Height (km)
Speed (km/s)
/
Latitude / Longitude
Inclination (degrees)
Orbital Period (minutes)
Azimuth
Elevation
Range (km)
Doppler Factor

Next 0 passes for location: London (51.5072 / 0.1276)

Sorry there are no passes over London.